EW3197 Weather Reports


time (UTC)temp
C
wind
direction
speed
KPH
gust
KPH
rain 1hr
cm
rain 24hr
cm
rain mn
cm
humidity
%
barometer
mb
20260504130704 13 200 6.4 16.1 0.00 0.00 0.00 49 1011.2
20260504130203 13 202 4.8 16.1 0.00 0.00 0.00 50 1011.3
20260504120204 10 298 0.0 1.6 0.00 0.00 0.00 71 1011.8
20260504110704 5 298 0.0 0.0 0.00 0.00 0.00 83 1011.9
20260504110204 4 298 0.0 0.0 0.00 0.00 0.00 84 1011.9
20260504100203 2 298 0.0 0.0 0.00 0.00 0.00 84 1011.7
20260504081703 3 298 0.0 0.0 0.00 0.00 0.00 83 1011.5
20260504081203 3 298 0.0 0.0 0.00 0.00 0.00 82 1011.5
20260504080703 3 298 0.0 0.0 0.00 0.00 0.00 82 1011.5
20260504080205 3 298 0.0 0.0 0.00 0.00 0.00 82 1011.5
20260504070204 3 298 0.0 0.0 0.00 0.00 0.00 81 1011.4
20260504060203 4 298 0.0 0.0 0.00 0.00 0.00 78 1011.4
20260504050704 4 298 0.0 0.0 0.00 0.00 0.00 77 1011.7
20260504050203 4 298 0.0 0.0 0.00 0.00 0.00 77 1011.7
20260504045204 3 298 0.0 0.0 0.00 0.00 0.00 77 1011.7
20260504044704 3 298 0.0 0.0 0.00 0.00 0.00 77 1011.8
20260504044203 3 298 0.0 0.0 0.00 0.00 0.00 78 1011.7
20260504043704 3 298 0.0 0.0 0.00 0.00 0.00 78 1011.8
20260504043204 3 298 0.0 0.0 0.00 0.00 0.00 78 1011.8
20260504042703 3 298 0.0 0.0 0.00 0.00 0.00 78 1011.8
20260504042203 3 298 0.0 0.0 0.00 0.00 0.00 79 1011.8
20260504041204 3 298 0.0 0.0 0.00 0.00 0.00 78 1011.8
20260504040704 3 298 0.0 0.0 0.00 0.00 0.00 78 1011.6
20260504040204 3 298 0.0 0.0 0.00 0.00 0.00 79 1011.6
20260504035704 2 298 0.0 0.0 0.00 0.00 0.00 79 1011.6
20260504035204 2 298 0.0 0.0 0.00 0.00 0.00 78 1011.6
20260504034704 2 298 0.0 0.0 0.00 0.00 0.00 78 1011.6
20260504034204 2 298 0.0 0.0 0.00 0.00 0.00 78 1011.5
20260504033703 2 298 0.0 0.0 0.00 0.00 0.00 78 1011.5
20260504033205 2 298 0.0 0.0 0.00 0.00 0.00 77 1011.4
20260504032704 2 298 0.0 0.0 0.00 0.00 0.00 77 1011.5
20260504032204 2 298 0.0 0.0 0.00 0.00 0.00 77 1011.5
20260504031705 2 298 0.0 0.0 0.00 0.00 0.00 77 1011.4
20260504031203 3 298 0.0 0.0 0.00 0.00 0.00 77 1011.4
20260504030704 3 298 0.0 0.0 0.00 0.00 0.00 77 1011.3
20260504030204 3 298 0.0 0.0 0.00 0.00 0.00 76 1011.3
20260504025704 3 298 0.0 0.0 0.00 0.00 0.00 75 1011.2
20260504025204 3 298 0.0 0.0 0.00 0.00 0.00 75 1011.2
20260504024704 3 298 0.0 0.0 0.00 0.00 0.00 75 1011.2
20260504024204 3 298 0.0 0.0 0.00 0.00 0.00 76 1011.2
20260504023703 4 298 0.0 0.0 0.00 0.00 0.00 75 1011.3
20260504022704 4 298 0.0 0.0 0.00 0.00 0.00 73 1011.4
20260504022203 4 298 0.0 0.0 0.00 0.00 0.00 73 1011.4
20260504021704 5 298 0.0 0.0 0.00 0.00 0.00 72 1011.4
20260504021204 5 298 0.0 0.0 0.00 0.00 0.00 71 1011.4
20260504020704 5 298 0.0 0.0 0.00 0.00 0.00 69 1011.3
20260504015704 5 298 0.0 0.0 0.00 0.00 0.00 69 1011.3
20260504015204 5 298 0.0 0.0 0.00 0.00 0.00 70 1011.2
20260504014704 5 298 0.0 0.0 0.00 0.00 0.00 69 1011.1
20260504013704 6 298 0.0 0.0 0.00 0.00 0.00 66 1011.1
20260504013204 6 298 0.0 0.0 0.00 0.00 0.00 65 1011.0
20260504011204 7 298 0.0 0.0 0.00 0.00 0.00 62 1010.8
20260504010704 8 298 0.0 0.0 0.00 0.00 0.00 60 1010.8
20260504010204 8 298 0.0 0.0 0.00 0.00 0.00 57 1010.7
20260504005704 9 298 0.0 3.2 0.00 0.00 0.00 51 1010.6
20260504005204 10 298 0.0 0.0 0.00 0.00 0.00 46 1010.6
20260504004704 10 298 1.6 4.8 0.00 0.00 0.00 45 1010.5
20260504004203 10 300 0.0 4.8 0.00 0.00 0.00 45 1010.5
20260504003704 10 300 1.6 3.2 0.00 0.00 0.00 44 1010.5
20260504003204 10 300 1.6 4.8 0.00 0.00 0.00 43 1010.4
20260504002703 10 300 1.6 4.8 0.00 0.00 0.00 43 1010.3
20260504002203 11 299 1.6 4.8 0.00 0.00 0.00 43 1010.3
20260504001704 11 299 1.6 4.8 0.00 0.00 0.00 42 1010.2
20260504000704 11 258 1.6 3.2 0.00 0.00 0.00 41 1009.9
20260504000204 11 265 1.6 14.5 0.00 0.00 0.00 42 1009.9
20260503235704 11 309 3.2 9.7 0.00 0.00 0.00 41 1009.9
20260503235204 11 267 1.6 16.1 0.00 0.00 0.00 41 1009.8
20260503234203 11 284 1.6 4.8 0.00 0.00 0.00 39 1009.7
20260503233704 11 274 1.6 12.9 0.00 0.00 0.00 37 1009.6
20260503232704 11 257 3.2 11.3 0.00 0.00 0.00 37 1009.6
20260503232204 12 216 4.8 14.5 0.00 0.00 0.00 38 1009.5
20260503231704 12 313 1.6 8.0 0.00 0.00 0.00 38 1009.4
20260503231204 12 304 1.6 11.3 0.00 0.00 0.00 36 1009.5
20260503230704 12 296 3.2 11.3 0.00 0.00 0.00 37 1009.4
20260503230203 12 288 6.4 19.3 0.00 0.00 0.00 35 1009.4
20260503224704 12 296 1.6 12.9 0.00 0.00 0.00 37 1009.2
20260503224203 12 310 4.8 11.3 0.00 0.00 0.00 35 1009.2
20260503223704 12 241 3.2 8.0 0.00 0.00 0.00 37 1009.2
20260503223203 12 288 3.2 8.0 0.00 0.00 0.00 36 1009.2
20260503222704 12 250 6.4 16.1 0.00 0.00 0.00 34 1009.2
20260503221704 12 292 4.8 19.3 0.00 0.00 0.00 35 1009.2
20260503221204 12 315 3.2 12.9 0.00 0.00 0.00 35 1009.2
20260503220704 12 211 3.2 19.3 0.00 0.00 0.00 36 1009.2
20260503215704 12 285 8.0 20.9 0.00 0.00 0.00 35 1009.1
20260503215204 13 326 4.8 19.3 0.00 0.00 0.00 35 1009.2
20260503214703 13 295 4.8 14.5 0.00 0.00 0.00 35 1009.1
20260503213704 13 314 4.8 22.5 0.00 0.00 0.00 36 1009.0
20260503212704 13 347 3.2 24.1 0.00 0.00 0.00 39 1009.0
20260503212204 13 291 8.0 19.3 0.00 0.00 0.00 39 1009.0
20260503211704 13 323 4.8 16.1 0.00 0.00 0.00 36 1009.0
20260503211203 13 300 3.2 8.0 0.00 0.00 0.00 36 1009.1
20260503210704 12 270 4.8 19.3 0.00 0.00 0.00 37 1009.1
20260503210204 13 272 6.4 29.0 0.00 0.00 0.00 36 1009.2
20260503205204 13 263 6.4 19.3 0.00 0.00 0.00 38 1009.1
20260503204704 13 279 4.8 19.3 0.00 0.00 0.00 39 1009.1
20260503204204 13 271 9.7 32.2 0.00 0.00 0.00 36 1009.3
20260503203704 13 311 9.7 32.2 0.00 0.00 0.00 39 1009.1
20260503203204 13 333 9.7 22.5 0.00 0.00 0.00 36 1009.1
20260503202703 13 263 6.4 22.5 0.00 0.00 0.00 40 1009.2
20260503202204 13 325 4.8 16.1 0.00 0.00 0.00 40 1009.3
20260503201703 13 298 3.2 20.9 0.00 0.00 0.00 41 1009.3
20260503201204 12 263 9.7 32.2 0.00 0.00 0.00 41 1009.3
20260503200704 12 275 4.8 12.9 0.00 0.00 0.00 43 1009.3
20260503200203 12 242 6.4 19.3 0.00 0.00 0.00 40 1009.5
20260503195704 12 228 3.2 24.1 0.00 0.00 0.00 43 1009.5
20260503195203 12 357 4.8 22.5 0.00 0.00 0.00 41 1009.6
20260503194704 12 301 9.7 19.3 0.00 0.00 0.00 40 1009.7
20260503194204 12 235 4.8 14.5 0.00 0.00 0.00 42 1009.8
20260503193204 11 277 9.7 20.9 0.00 0.00 0.00 41 1009.8
20260503192705 12 220 8.0 19.3 0.00 0.00 0.00 41 1009.9
20260503191704 11 260 4.8 12.9 0.00 0.00 0.00 45 1010.1
20260503191203 11 290 8.0 22.5 0.00 0.00 0.00 44 1009.9
20260503190204 10 289 6.4 16.1 0.00 0.00 0.00 45 1010.0
20260503185704 11 289 14.5 22.5 0.00 0.00 0.00 42 1010.1
20260503185204 11 326 8.0 19.3 0.00 0.00 0.00 43 1010.2
20260503184704 11 239 11.3 32.2 0.00 0.03 0.00 42 1010.1
20260503184204 11 225 8.0 20.9 0.00 0.03 0.00 42 1010.2
20260503182204 11 280 9.7 25.7 0.00 0.03 0.00 42 1010.2
20260503181705 11 313 9.7 20.9 0.00 0.03 0.00 42 1010.1
20260503181204 11 304 11.3 25.7 0.00 0.03 0.00 41 1010.1
20260503180704 11 301 6.4 19.3 0.00 0.03 0.00 45 1010.0
20260503180204 10 309 11.3 29.0 0.00 0.03 0.00 42 1010.2
20260503175704 11 280 9.7 22.5 0.00 0.03 0.00 44 1010.1
20260503175204 11 262 8.0 19.3 0.00 0.03 0.00 44 1010.0
20260503174704 11 254 4.8 12.9 0.00 0.03 0.00 44 1010.0
20260503174204 11 273 3.2 14.5 0.00 0.03 0.00 45 1010.0
20260503173203 10 305 8.0 16.1 0.00 0.03 0.00 45 1009.9
20260503172705 10 244 12.9 25.7 0.00 0.03 0.00 44 1010.0
20260503172204 10 326 4.8 29.0 0.00 0.03 0.00 44 1009.9
20260503171703 10 248 6.4 24.1 0.00 0.03 0.00 45 1009.9
20260503171204 10 289 8.0 25.7 0.00 0.03 0.00 43 1010.0
20260503170704 10 235 4.8 25.7 0.00 0.03 0.00 44 1010.1
20260503160204 8 256 3.2 11.3 0.00 0.03 0.00 53 1010.3
20260503150204 9 247 4.8 12.9 0.00 0.05 0.00 60 1010.5